EWG3WT EDDK-LSZH

Flight info

Callsign EWG3WT
Flight time 0h 42m
Altitude 31000
Route KUMIK1B KUMIK Y854 BOMBI T721 RILAX
Aircraft A320/M-SDE3FGHIRWY/LB1

Departure

Time 2026-02-17 09:06
Airport Cologne Bonn Airport (EDDK)

Arrival

Time 2026-02-17 09:48
Airport Zürich Airport (LSZH)
Time Latitude Longitude Altitude Speed Heading
2026-02-17 08:24 50.87982 7.12371 232 ft 0 kts 216°
2026-02-17 08:53 50.87983 7.12372 232 ft 1 kts 216°
2026-02-17 08:53 50.87996 7.12387 232 ft 3 kts 217°
2026-02-17 08:53 50.88012 7.12406 234 ft 2 kts 217°
2026-02-17 08:53 50.88028 7.12423 232 ft 3 kts 200°
2026-02-17 08:54 50.88045 7.12428 233 ft 3 kts 158°
2026-02-17 08:54 50.88060 7.12411 233 ft 3 kts 124°
2026-02-17 08:54 50.88068 7.12391 232 ft 1 kts 120°
2026-02-17 08:55 50.88068 7.12390 232 ft 0 kts 120°
2026-02-17 08:57 50.88066 7.12393 232 ft 1 kts 124°
2026-02-17 08:57 50.88044 7.12432 233 ft 5 kts 134°
2026-02-17 08:57 50.88024 7.12462 242 ft 3 kts 137°
2026-02-17 08:58 50.87990 7.12510 232 ft 13 kts 138°
2026-02-17 08:58 50.87940 7.12582 232 ft 9 kts 140°
2026-02-17 08:58 50.87866 7.12610 232 ft 12 kts 178°
2026-02-17 08:59 50.87756 7.12719 232 ft 8 kts 137°
2026-02-17 08:59 50.87716 7.12776 232 ft 9 kts 139°
2026-02-17 08:59 50.87648 7.12872 232 ft 17 kts 137°
2026-02-17 08:59 50.87548 7.13017 232 ft 19 kts 137°
2026-02-17 09:00 50.87454 7.13153 232 ft 17 kts 137°
2026-02-17 09:00 50.87370 7.13275 232 ft 16 kts 137°
2026-02-17 09:00 50.87280 7.13405 233 ft 21 kts 137°
2026-02-17 09:00 50.87166 7.13569 237 ft 22 kts 137°
2026-02-17 09:01 50.87063 7.13720 241 ft 18 kts 137°
2026-02-17 09:01 50.86955 7.13877 247 ft 23 kts 134°
2026-02-17 09:01 50.86913 7.14086 255 ft 17 kts 101°
2026-02-17 09:01 50.86895 7.14257 256 ft 15 kts 99°
2026-02-17 09:02 50.86879 7.14400 260 ft 12 kts 99°
2026-02-17 09:02 50.86869 7.14543 261 ft 13 kts 87°
2026-02-17 09:02 50.86895 7.14668 262 ft 11 kts 65°
2026-02-17 09:03 50.86985 7.14967 269 ft 19 kts 64°
2026-02-17 09:03 50.87045 7.15164 274 ft 19 kts 65°
2026-02-17 09:03 50.87092 7.15318 278 ft 13 kts 64°
2026-02-17 09:03 50.87077 7.15431 278 ft 9 kts 144°
2026-02-17 09:04 50.87042 7.15458 278 ft 5 kts 154°
2026-02-17 09:04 50.87002 7.15485 280 ft 7 kts 158°
2026-02-17 09:04 50.86961 7.15491 278 ft 5 kts 208°
2026-02-17 09:04 50.86943 7.15448 278 ft 5 kts 245°
2026-02-17 09:05 50.86920 7.15374 277 ft 12 kts 244°
2026-02-17 09:05 50.86793 7.14951 271 ft 79 kts 244°
2026-02-17 09:05 50.86462 7.13856 258 ft 139 kts 245°
2026-02-17 09:05 50.86026 7.12432 776 ft 143 kts 246°
2026-02-17 09:06 50.85582 7.11026 1523 ft 142 kts 246°
2026-02-17 09:06 50.85123 7.09538 1964 ft 159 kts 248°
2026-02-17 09:06 50.84617 7.07843 2303 ft 182 kts 248°
2026-02-17 09:07 50.82512 7.05142 3126 ft 241 kts 186°
2026-02-17 09:07 50.80771 7.05631 3650 ft 267 kts 165°
2026-02-17 09:07 50.79043 7.06844 4490 ft 279 kts 148°
2026-02-17 09:07 50.77789 7.09210 5346 ft 288 kts 113°
2026-02-17 09:08 50.77399 7.12303 6257 ft 290 kts 87°
2026-02-17 09:08 50.77483 7.15490 7158 ft 292 kts 85°
2026-02-17 09:08 50.77564 7.18718 8053 ft 295 kts 86°
2026-02-17 09:08 50.77635 7.21980 8937 ft 299 kts 86°
2026-02-17 09:09 50.77702 7.25285 9808 ft 303 kts 86°
2026-02-17 09:09 50.77768 7.28648 10260 ft 321 kts 86°
2026-02-17 09:09 50.77842 7.32294 10572 ft 342 kts 86°
2026-02-17 09:09 50.77918 7.36095 11227 ft 349 kts 86°
2026-02-17 09:10 50.77994 7.39953 11982 ft 353 kts 86°
2026-02-17 09:10 50.78073 7.43906 12768 ft 357 kts 86°
2026-02-17 09:10 50.78151 7.47849 13541 ft 361 kts 87°
2026-02-17 09:11 50.78296 7.55859 14891 ft 368 kts 87°
2026-02-17 09:11 50.78432 7.59912 15555 ft 371 kts 81°
2026-02-17 09:11 50.78856 7.63896 16213 ft 374 kts 78°
2026-02-17 09:11 50.79315 7.67960 16874 ft 377 kts 78°
2026-02-17 09:12 50.79775 7.72057 17522 ft 380 kts 78°
2026-02-17 09:12 50.80236 7.76198 18150 ft 384 kts 78°
2026-02-17 09:12 50.80701 7.80372 18694 ft 387 kts 78°
2026-02-17 09:12 50.81169 7.84584 19249 ft 391 kts 78°
2026-02-17 09:13 50.81640 7.88844 19802 ft 395 kts 78°
2026-02-17 09:13 50.82115 7.93131 20351 ft 398 kts 77°
2026-02-17 09:13 50.82398 7.97521 20899 ft 405 kts 88°
2026-02-17 09:13 50.82072 8.01970 21476 ft 411 kts 102°
2026-02-17 09:14 50.81125 8.06239 22066 ft 414 kts 116°
2026-02-17 09:14 50.79599 8.10107 22592 ft 417 kts 129°
2026-02-17 09:14 50.77556 8.13367 23108 ft 419 kts 143°
2026-02-17 09:15 50.72649 8.18455 23934 ft 426 kts 149°
2026-02-17 09:15 50.70135 8.20968 24303 ft 430 kts 149°
2026-02-17 09:15 50.67596 8.23505 24675 ft 434 kts 149°
2026-02-17 09:15 50.65035 8.26071 25036 ft 438 kts 149°
2026-02-17 09:16 50.62453 8.28662 25434 ft 442 kts 149°
2026-02-17 09:16 50.59847 8.31274 25781 ft 446 kts 149°
2026-02-17 09:16 50.57212 8.33908 26109 ft 450 kts 149°
2026-02-17 09:16 50.54550 8.36561 26380 ft 456 kts 149°
2026-02-17 09:17 50.51863 8.39241 26741 ft 459 kts 149°
2026-02-17 09:17 50.49156 8.41938 27098 ft 462 kts 149°
2026-02-17 09:17 50.46428 8.44650 27424 ft 466 kts 149°
2026-02-17 09:17 50.43674 8.47386 27747 ft 470 kts 149°
2026-02-17 09:18 50.40906 8.50129 28061 ft 473 kts 149°
2026-02-17 09:18 50.38105 8.52889 28368 ft 477 kts 150°
2026-02-17 09:18 50.35249 8.55560 28662 ft 480 kts 152°
2026-02-17 09:19 50.29330 8.60553 29160 ft 487 kts 155°
2026-02-17 09:19 50.26338 8.62945 29435 ft 491 kts 155°
2026-02-17 09:19 50.23289 8.65383 29710 ft 494 kts 155°
2026-02-17 09:19 50.20229 8.67867 29955 ft 498 kts 155°
2026-02-17 09:20 50.17157 8.70400 30183 ft 501 kts 154°
2026-02-17 09:20 50.14074 8.72976 30409 ft 503 kts 154°
2026-02-17 09:20 50.10985 8.75573 30624 ft 506 kts 154°
2026-02-17 09:20 50.07881 8.78180 30754 ft 509 kts 154°
2026-02-17 09:21 50.04707 8.80497 30803 ft 495 kts 163°
2026-02-17 09:21 50.01474 8.82099 30806 ft 484 kts 167°
2026-02-17 09:21 49.96094 8.84599 30804 ft 480 kts 167°
2026-02-17 09:22 49.89707 8.87593 30799 ft 479 kts 167°
2026-02-17 09:23 49.80142 8.92114 30809 ft 484 kts 167°
2026-02-17 09:23 49.73689 8.95150 30803 ft 485 kts 168°
2026-02-17 09:24 49.67181 8.97670 30796 ft 477 kts 179°
2026-02-17 09:24 49.60684 8.97566 30783 ft 460 kts 198°
2026-02-17 09:25 49.54408 8.95828 30795 ft 458 kts 199°
2026-02-17 09:25 49.48116 8.94106 30804 ft 460 kts 199°
2026-02-17 09:26 49.41815 8.92385 30811 ft 460 kts 199°
2026-02-17 09:26 49.35490 8.90658 30824 ft 464 kts 199°
2026-02-17 09:27 49.25926 8.88061 30824 ft 465 kts 199°
2026-02-17 09:27 49.19554 8.86333 30815 ft 465 kts 199°
2026-02-17 09:28 49.13182 8.84600 30469 ft 463 kts 200°
2026-02-17 09:28 49.10013 8.83743 30230 ft 461 kts 200°
2026-02-17 09:28 49.06874 8.82892 29997 ft 458 kts 200°
2026-02-17 09:29 49.03746 8.82040 29612 ft 454 kts 200°
2026-02-17 09:29 49.00650 8.81198 29031 ft 450 kts 199°
2026-02-17 09:29 48.97580 8.80365 28483 ft 447 kts 199°
2026-02-17 09:29 48.94531 8.79536 27939 ft 442 kts 200°
2026-02-17 09:30 48.88524 8.77917 26997 ft 434 kts 199°
2026-02-17 09:30 48.85568 8.77124 26531 ft 429 kts 199°
2026-02-17 09:31 48.79775 8.75576 25634 ft 421 kts 199°
2026-02-17 09:31 48.76901 8.74807 25182 ft 418 kts 198°
2026-02-17 09:31 48.74050 8.74044 24710 ft 415 kts 199°
2026-02-17 09:31 48.71218 8.73285 24271 ft 412 kts 199°
2026-02-17 09:32 48.68407 8.72531 23815 ft 409 kts 198°
2026-02-17 09:32 48.65617 8.71781 23327 ft 406 kts 198°
2026-02-17 09:32 48.62839 8.71036 22815 ft 403 kts 198°
2026-02-17 09:32 48.60099 8.70305 22351 ft 399 kts 198°
2026-02-17 09:33 48.57375 8.69583 21887 ft 395 kts 198°
2026-02-17 09:33 48.54675 8.68867 21420 ft 392 kts 197°
2026-02-17 09:33 48.52005 8.68159 20963 ft 388 kts 197°
2026-02-17 09:33 48.49357 8.67460 20509 ft 385 kts 197°
2026-02-17 09:34 48.46727 8.66764 20049 ft 382 kts 197°
2026-02-17 09:34 48.44120 8.66071 19598 ft 378 kts 197°
2026-02-17 09:34 48.41538 8.65386 19149 ft 375 kts 196°
2026-02-17 09:35 48.36439 8.64023 18273 ft 369 kts 196°
2026-02-17 09:35 48.33928 8.63289 17796 ft 366 kts 197°
2026-02-17 09:35 48.31447 8.62534 17359 ft 361 kts 197°
2026-02-17 09:35 48.29035 8.61789 16951 ft 357 kts 197°
2026-02-17 09:36 48.26616 8.61039 16539 ft 353 kts 197°
2026-02-17 09:36 48.24215 8.60297 16121 ft 351 kts 197°
2026-02-17 09:36 48.21836 8.59576 15717 ft 347 kts 197°
2026-02-17 09:36 48.19478 8.58870 15312 ft 344 kts 197°
2026-02-17 09:37 48.17136 8.58168 14907 ft 342 kts 197°
2026-02-17 09:37 48.14810 8.57470 14473 ft 340 kts 197°
2026-02-17 09:37 48.12492 8.56776 14044 ft 339 kts 196°
2026-02-17 09:37 48.10184 8.56085 13598 ft 337 kts 196°
2026-02-17 09:38 48.07895 8.55404 13149 ft 334 kts 196°
2026-02-17 09:38 48.05628 8.54728 12727 ft 331 kts 197°
2026-02-17 09:38 48.03378 8.54058 12302 ft 328 kts 197°
2026-02-17 09:39 47.98949 8.52746 11476 ft 322 kts 197°
2026-02-17 09:39 47.96759 8.52097 11065 ft 319 kts 197°
2026-02-17 09:39 47.94594 8.51457 10660 ft 317 kts 197°
2026-02-17 09:39 47.92442 8.50820 10259 ft 314 kts 197°
2026-02-17 09:40 47.90312 8.50177 9958 ft 308 kts 197°
2026-02-17 09:40 47.88257 8.49554 9813 ft 297 kts 198°
2026-02-17 09:40 47.86249 8.48941 9455 ft 293 kts 198°
2026-02-17 09:40 47.84247 8.48330 9044 ft 292 kts 198°
2026-02-17 09:41 47.82296 8.47738 8677 ft 290 kts 198°
2026-02-17 09:41 47.80327 8.47142 8283 ft 287 kts 198°
2026-02-17 09:41 47.78372 8.46550 7846 ft 286 kts 198°
2026-02-17 09:41 47.76426 8.45960 7428 ft 285 kts 198°
2026-02-17 09:42 47.74486 8.45372 7067 ft 282 kts 198°
2026-02-17 09:42 47.72561 8.44791 6684 ft 281 kts 198°
2026-02-17 09:42 47.70672 8.44203 6210 ft 273 kts 202°
2026-02-17 09:43 47.67568 8.41511 5196 ft 250 kts 232°
2026-02-17 09:43 47.66414 8.39646 4949 ft 243 kts 232°
2026-02-17 09:43 47.65275 8.37833 4691 ft 238 kts 233°
2026-02-17 09:43 47.64145 8.36095 4521 ft 230 kts 226°
2026-02-17 09:44 47.62718 8.35188 4403 ft 227 kts 188°
2026-02-17 09:44 47.61201 8.35823 4277 ft 235 kts 148°
2026-02-17 09:44 47.59966 8.37403 4137 ft 232 kts 139°
2026-02-17 09:44 47.58830 8.39030 4034 ft 222 kts 140°
2026-02-17 09:45 47.57743 8.40546 4011 ft 205 kts 141°
2026-02-17 09:45 47.56719 8.41953 3796 ft 198 kts 142°
2026-02-17 09:45 47.55729 8.43311 3528 ft 188 kts 142°
2026-02-17 09:45 47.54797 8.44590 3298 ft 178 kts 142°
2026-02-17 09:46 47.53916 8.45798 3064 ft 168 kts 143°
2026-02-17 09:46 47.53073 8.46953 2843 ft 164 kts 143°
2026-02-17 09:46 47.52252 8.48074 2618 ft 162 kts 142°
2026-02-17 09:47 47.50638 8.50285 2137 ft 153 kts 143°
2026-02-17 09:47 47.49868 8.51338 1912 ft 149 kts 139°
2026-02-17 09:47 47.49110 8.52374 1706 ft 148 kts 139°
2026-02-17 09:47 47.48354 8.53420 1487 ft 149 kts 139°
2026-02-17 09:48 47.47623 8.54408 1400 ft 128 kts 137°
2026-02-17 09:48 47.47096 8.55127 1388 ft 81 kts 137°
2026-02-17 09:48 47.46796 8.55535 1397 ft 40 kts 138°
2026-02-17 09:48 47.46615 8.55674 1398 ft 23 kts 170°
2026-02-17 09:49 47.46503 8.55712 1404 ft 17 kts 167°
2026-02-17 09:49 47.46387 8.55760 1398 ft 17 kts 150°
2026-02-17 09:49 47.46300 8.55871 1408 ft 13 kts 135°
2026-02-17 09:49 47.46237 8.55851 1403 ft 11 kts 245°
2026-02-17 09:50 47.46241 8.55720 1401 ft 15 kts 276°
2026-02-17 09:50 47.46252 8.55550 1402 ft 18 kts 275°
2026-02-17 09:50 47.46267 8.55344 1400 ft 21 kts 276°
2026-02-17 09:51 47.46285 8.55000 1390 ft 13 kts 255°
2026-02-17 09:51 47.46212 8.54970 1390 ft 13 kts 154°
2026-02-17 09:51 47.46124 8.55016 1394 ft 14 kts 157°
2026-02-17 09:51 47.46032 8.55078 1394 ft 15 kts 154°
2026-02-17 09:52 47.45937 8.55144 1399 ft 15 kts 155°
2026-02-17 09:52 47.45844 8.55207 1403 ft 16 kts 155°
2026-02-17 09:52 47.45739 8.55281 1402 ft 17 kts 154°
2026-02-17 09:52 47.45629 8.55335 1401 ft 13 kts 159°
2026-02-17 09:53 47.45544 8.55391 1408 ft 13 kts 154°
2026-02-17 09:53 47.45460 8.55452 1406 ft 13 kts 154°
2026-02-17 09:53 47.45375 8.55509 1408 ft 13 kts 155°
2026-02-17 09:53 47.45290 8.55573 1414 ft 13 kts 141°
2026-02-17 09:54 47.45269 8.55669 1407 ft 8 kts 96°
2026-02-17 09:54 47.45274 8.55738 1413 ft 6 kts 47°
2026-02-17 09:54 47.45307 8.55749 1411 ft 4 kts
2026-02-17 09:55 47.45338 8.55753 1411 ft 0 kts
2026-02-17 09:55 47.45343 8.55754 1409 ft 1 kts
2026-02-17 09:55 47.45344 8.55754 1409 ft 0 kts